Back to catalog

FENGYUN 1C DEB

LostPO
NORAD 32368·DEBRIS·🇨🇳 China

Launched May 10, 1999 from Taiyuan Satellite Launch Center

Loading…

Next Passes (next 24 hours)

TLE

StaleSource: Space-Track

Epoch: May 13, 2024, 06:37 UTC

1 32368U 99025CZM 24134.27636693  .00011954  00000-0  58270-2 0  9997
2 32368  97.8312 300.8313 0274143 107.3568 255.7780 14.00435745842330

Track FENGYUN 1C DEB in real time with AllMySat

Download on the App Store